Year,Month,Day,Hour,Minute,Value (Times are PST for temperature in C)
2015,05,30,00,00,16.60
2015,05,30,00,01,16.60
2015,05,30,00,02,16.50
2015,05,30,00,03,16.50
2015,05,30,00,04,16.40
2015,05,30,00,05,16.40
2015,05,30,00,06,16.40
2015,05,30,00,07,16.40
2015,05,30,00,08,16.30
2015,05,30,00,09,16.30
2015,05,30,00,10,16.40
2015,05,30,00,11,16.40
2015,05,30,00,12,16.40
2015,05,30,00,13,16.40
2015,05,30,00,14,16.40
2015,05,30,00,15,16.40
2015,05,30,00,16,16.40
2015,05,30,00,17,16.40
2015,05,30,00,18,16.30
2015,05,30,00,19,16.30
2015,05,30,00,20,16.30
2015,05,30,00,21,16.30
2015,05,30,00,22,16.20
2015,05,30,00,23,16.20
2015,05,30,00,24,16.20
2015,05,30,00,25,16.20
2015,05,30,00,26,16.20
2015,05,30,00,27,16.10
2015,05,30,00,28,16.10
2015,05,30,00,29,16.10
2015,05,30,00,30,16.10
2015,05,30,00,31,16.00
2015,05,30,00,32,16.00
2015,05,30,00,33,15.90
2015,05,30,00,34,15.90
2015,05,30,00,35,15.90
2015,05,30,00,36,15.90
2015,05,30,00,37,15.80
2015,05,30,00,38,15.80
2015,05,30,00,39,15.80
2015,05,30,00,40,15.80
2015,05,30,00,41,15.80
2015,05,30,00,42,15.70
2015,05,30,00,43,15.70
2015,05,30,00,44,15.70
2015,05,30,00,45,15.60
2015,05,30,00,46,15.60
2015,05,30,00,47,15.60
2015,05,30,00,48,15.60
2015,05,30,00,49,15.50
2015,05,30,00,50,15.50
2015,05,30,00,51,15.40
2015,05,30,00,52,15.40
2015,05,30,00,53,15.40
2015,05,30,00,54,15.30
2015,05,30,00,55,15.30
2015,05,30,00,56,15.30
2015,05,30,00,57,15.20
2015,05,30,00,58,15.20
2015,05,30,00,59,15.20
2015,05,30,01,00,15.20
2015,05,30,01,01,15.10
2015,05,30,01,02,15.10
2015,05,30,01,03,15.10
2015,05,30,01,04,15.10
2015,05,30,01,05,15.10
2015,05,30,01,06,15.10
2015,05,30,01,07,15.10
2015,05,30,01,08,15.00
2015,05,30,01,09,15.00
2015,05,30,01,10,15.00
2015,05,30,01,11,15.00
2015,05,30,01,12,14.90
2015,05,30,01,13,14.90
2015,05,30,01,14,14.90
2015,05,30,01,15,14.90
2015,05,30,01,16,14.90
2015,05,30,01,17,14.90
2015,05,30,01,18,14.90
2015,05,30,01,19,14.90
2015,05,30,01,20,14.80
2015,05,30,01,21,14.80
2015,05,30,01,22,14.80
2015,05,30,01,23,14.70
2015,05,30,01,24,14.70
2015,05,30,01,25,14.70
2015,05,30,01,26,14.70
2015,05,30,01,27,14.70
2015,05,30,01,28,14.70
2015,05,30,01,29,14.60
2015,05,30,01,30,14.60
2015,05,30,01,31,14.60
2015,05,30,01,32,14.60
2015,05,30,01,33,14.60
2015,05,30,01,34,14.60
2015,05,30,01,35,14.50
2015,05,30,01,36,14.50
2015,05,30,01,37,14.50
2015,05,30,01,38,14.50
2015,05,30,01,39,14.40
2015,05,30,01,40,14.40
2015,05,30,01,41,14.40
2015,05,30,01,42,14.40
2015,05,30,01,43,14.40
2015,05,30,01,44,14.40
2015,05,30,01,45,14.40
2015,05,30,01,46,14.40
2015,05,30,01,47,14.30
2015,05,30,01,48,14.30
2015,05,30,01,49,14.30
2015,05,30,01,50,14.20
2015,05,30,01,51,14.20
2015,05,30,01,52,14.20
2015,05,30,01,53,14.10
2015,05,30,01,54,14.10
2015,05,30,01,55,14.00
2015,05,30,01,56,14.00
2015,05,30,01,57,13.90
2015,05,30,01,58,13.90
2015,05,30,01,59,13.90
2015,05,30,02,00,13.80
2015,05,30,02,01,13.80
2015,05,30,02,02,13.80
2015,05,30,02,03,13.80
2015,05,30,02,04,13.70
2015,05,30,02,05,13.70
2015,05,30,02,06,13.70
2015,05,30,02,07,13.70
2015,05,30,02,08,13.70
2015,05,30,02,09,13.70
2015,05,30,02,10,13.70
2015,05,30,02,11,13.70
2015,05,30,02,12,13.70
2015,05,30,02,13,13.80
2015,05,30,02,14,13.80
2015,05,30,02,15,13.80
2015,05,30,02,16,13.90
2015,05,30,02,17,13.90
2015,05,30,02,18,13.90
2015,05,30,02,19,13.90
2015,05,30,02,20,13.90
2015,05,30,02,21,13.90
2015,05,30,02,22,13.90
2015,05,30,02,23,13.80
2015,05,30,02,24,13.80
2015,05,30,02,25,13.80
2015,05,30,02,26,13.80
2015,05,30,02,27,13.70
2015,05,30,02,28,13.70
2015,05,30,02,29,13.70
2015,05,30,02,30,13.60
2015,05,30,02,31,13.60
2015,05,30,02,32,13.50
2015,05,30,02,33,13.40
2015,05,30,02,34,13.40
2015,05,30,02,35,13.30
2015,05,30,02,36,13.30
2015,05,30,02,37,13.30
2015,05,30,02,38,13.30
2015,05,30,02,39,13.30
2015,05,30,02,40,13.30
2015,05,30,02,41,13.30
2015,05,30,02,42,13.30
2015,05,30,02,43,13.30
2015,05,30,02,44,13.30
2015,05,30,02,45,13.20
2015,05,30,02,46,13.20
2015,05,30,02,47,13.20
2015,05,30,02,48,13.20
2015,05,30,02,49,13.20
2015,05,30,02,50,13.20
2015,05,30,02,51,13.20
2015,05,30,02,52,13.20
2015,05,30,02,53,13.20
2015,05,30,02,54,13.20
2015,05,30,02,55,13.20
2015,05,30,02,56,13.20
2015,05,30,02,57,13.20
2015,05,30,02,58,13.20
2015,05,30,02,59,13.20
2015,05,30,03,00,13.20
2015,05,30,03,01,13.10
2015,05,30,03,02,13.10
2015,05,30,03,03,13.10
2015,05,30,03,04,13.10
2015,05,30,03,05,13.10
2015,05,30,03,06,13.00
2015,05,30,03,07,13.00
2015,05,30,03,08,13.00
2015,05,30,03,09,13.00
2015,05,30,03,10,13.00
2015,05,30,03,11,12.90
2015,05,30,03,12,12.90
2015,05,30,03,13,12.90
2015,05,30,03,14,12.90
2015,05,30,03,15,12.90
2015,05,30,03,16,12.80
2015,05,30,03,17,12.80
2015,05,30,03,18,12.80
2015,05,30,03,19,12.80
2015,05,30,03,20,12.80
2015,05,30,03,21,12.80
2015,05,30,03,22,12.80
2015,05,30,03,23,12.70
2015,05,30,03,24,12.70
2015,05,30,03,25,12.70
2015,05,30,03,26,12.70
2015,05,30,03,27,12.60
2015,05,30,03,28,12.60
2015,05,30,03,29,12.60
2015,05,30,03,30,12.60
2015,05,30,03,31,12.60
2015,05,30,03,32,12.60
2015,05,30,03,33,12.60
2015,05,30,03,34,12.60
2015,05,30,03,35,12.70
2015,05,30,03,36,12.70
2015,05,30,03,37,12.70
2015,05,30,03,38,12.70
2015,05,30,03,39,12.70
2015,05,30,03,40,12.70
2015,05,30,03,41,12.70
2015,05,30,03,42,12.80
2015,05,30,03,43,12.80
2015,05,30,03,44,12.80
2015,05,30,03,45,12.80
2015,05,30,03,46,12.80
2015,05,30,03,47,12.80
2015,05,30,03,48,12.70
2015,05,30,03,49,12.70
2015,05,30,03,50,12.70
2015,05,30,03,51,12.70
2015,05,30,03,52,12.70
2015,05,30,03,53,12.70
2015,05,30,03,54,12.60
2015,05,30,03,55,12.60
2015,05,30,03,56,12.60
2015,05,30,03,57,12.60
2015,05,30,03,58,12.60
2015,05,30,03,59,12.60
2015,05,30,04,00,12.50
2015,05,30,04,01,12.50
2015,05,30,04,02,12.50
2015,05,30,04,03,12.50
2015,05,30,04,04,12.40
2015,05,30,04,05,12.40
2015,05,30,04,06,12.40
2015,05,30,04,07,12.40
2015,05,30,04,08,12.40
2015,05,30,04,09,12.40
2015,05,30,04,10,12.30
2015,05,30,04,11,12.30
2015,05,30,04,12,12.30
2015,05,30,04,13,12.30
2015,05,30,04,14,12.20
2015,05,30,04,15,12.20
2015,05,30,04,16,12.20
2015,05,30,04,17,12.20
2015,05,30,04,18,12.10
2015,05,30,04,19,12.10
2015,05,30,04,20,12.10
2015,05,30,04,21,12.10
2015,05,30,04,22,12.00
2015,05,30,04,23,12.00
2015,05,30,04,24,11.90
2015,05,30,04,25,11.90
2015,05,30,04,26,11.90
2015,05,30,04,27,11.90
2015,05,30,04,28,11.80
2015,05,30,04,29,11.80
2015,05,30,04,30,11.80
2015,05,30,04,31,11.80
2015,05,30,04,32,11.80
2015,05,30,04,33,11.80
2015,05,30,04,34,11.80
2015,05,30,04,35,11.80
2015,05,30,04,36,11.70
2015,05,30,04,37,11.70
2015,05,30,04,38,11.70
2015,05,30,04,39,11.70
2015,05,30,04,40,11.70
2015,05,30,04,41,11.70
2015,05,30,04,42,11.70
2015,05,30,04,43,11.60
2015,05,30,04,44,11.60
2015,05,30,04,45,11.60
2015,05,30,04,46,11.60
2015,05,30,04,47,11.60
2015,05,30,04,48,11.60
2015,05,30,04,49,11.60
2015,05,30,04,50,11.50
2015,05,30,04,51,11.50
2015,05,30,04,52,11.50
2015,05,30,04,53,11.50
2015,05,30,04,54,11.50
2015,05,30,04,55,11.50
2015,05,30,04,56,11.50
2015,05,30,04,57,11.50
2015,05,30,04,58,11.50
2015,05,30,04,59,11.50
2015,05,30,05,00,11.40
2015,05,30,05,01,11.40
2015,05,30,05,02,11.40
2015,05,30,05,03,11.40
2015,05,30,05,04,11.40
2015,05,30,05,05,11.40
2015,05,30,05,06,11.30
2015,05,30,05,07,11.30
2015,05,30,05,08,11.30
2015,05,30,05,09,11.30
2015,05,30,05,10,11.30
2015,05,30,05,11,11.30
2015,05,30,05,12,11.30
2015,05,30,05,13,11.30
2015,05,30,05,14,11.30
2015,05,30,05,15,11.30
2015,05,30,05,16,11.30
2015,05,30,05,17,11.30
2015,05,30,05,18,11.30
2015,05,30,05,19,11.30
2015,05,30,05,20,11.30
2015,05,30,05,21,11.30
2015,05,30,05,22,11.30
2015,05,30,05,23,11.30
2015,05,30,05,24,11.30
2015,05,30,05,25,11.30
2015,05,30,05,26,11.30
2015,05,30,05,27,11.30
2015,05,30,05,28,11.30
2015,05,30,05,29,11.30
2015,05,30,05,30,11.30
2015,05,30,05,31,11.30
2015,05,30,05,32,11.20
2015,05,30,05,33,11.20
2015,05,30,05,34,11.20
2015,05,30,05,35,11.20
2015,05,30,05,36,11.20
2015,05,30,05,37,11.20
2015,05,30,05,38,11.20
2015,05,30,05,39,11.20
2015,05,30,05,40,11.10
2015,05,30,05,41,11.10
2015,05,30,05,42,11.10
2015,05,30,05,43,11.10
2015,05,30,05,44,11.10
2015,05,30,05,45,11.10
2015,05,30,05,46,11.10
2015,05,30,05,47,11.10
2015,05,30,05,48,11.10
2015,05,30,05,49,11.10
2015,05,30,05,50,11.10
2015,05,30,05,51,11.10
2015,05,30,05,52,11.10
2015,05,30,05,53,11.10
2015,05,30,05,54,11.20
2015,05,30,05,55,11.20
2015,05,30,05,56,11.20
2015,05,30,05,57,11.20
2015,05,30,05,58,11.20
2015,05,30,05,59,11.20
2015,05,30,06,00,11.20
2015,05,30,06,01,11.20
2015,05,30,06,02,11.20
2015,05,30,06,03,11.20
2015,05,30,06,04,11.20
2015,05,30,06,05,11.20
2015,05,30,06,06,11.20
2015,05,30,06,07,11.20
2015,05,30,06,08,11.30
2015,05,30,06,09,11.30
2015,05,30,06,10,11.30
2015,05,30,06,11,11.30
2015,05,30,06,12,11.30
2015,05,30,06,13,11.30
2015,05,30,06,14,11.30
2015,05,30,06,15,11.30
2015,05,30,06,16,11.30
2015,05,30,06,17,11.30
2015,05,30,06,18,11.30
2015,05,30,06,19,11.30
2015,05,30,06,20,11.40
2015,05,30,06,21,11.50
2015,05,30,06,22,11.50
2015,05,30,06,23,11.60
2015,05,30,06,24,11.60
2015,05,30,06,25,11.60
2015,05,30,06,26,11.70
2015,05,30,06,27,11.70
2015,05,30,06,28,11.70
2015,05,30,06,29,11.70
2015,05,30,06,30,11.70
2015,05,30,06,31,11.70
2015,05,30,06,32,11.70
2015,05,30,06,33,11.70
2015,05,30,06,34,11.70
2015,05,30,06,35,11.70
2015,05,30,06,36,11.70
2015,05,30,06,37,11.70
2015,05,30,06,38,11.70
2015,05,30,06,39,11.70
2015,05,30,06,40,11.70
2015,05,30,06,41,11.70
2015,05,30,06,42,11.70
2015,05,30,06,43,11.80
2015,05,30,06,44,11.80
2015,05,30,06,45,11.80
2015,05,30,06,46,11.80
2015,05,30,06,47,11.80
2015,05,30,06,48,11.80
2015,05,30,06,49,11.80
2015,05,30,06,50,11.90
2015,05,30,06,51,11.90
2015,05,30,06,52,11.90
2015,05,30,06,53,11.90
2015,05,30,06,54,11.90
2015,05,30,06,55,11.90
2015,05,30,06,56,12.00
2015,05,30,06,57,12.00
2015,05,30,06,58,12.00
2015,05,30,06,59,12.00
2015,05,30,07,00,12.00
2015,05,30,07,01,12.00
2015,05,30,07,02,12.10
2015,05,30,07,03,12.10
2015,05,30,07,04,12.10
2015,05,30,07,05,12.20
2015,05,30,07,06,12.20
2015,05,30,07,07,12.20
2015,05,30,07,08,12.20
2015,05,30,07,09,12.30
2015,05,30,07,10,12.30
2015,05,30,07,11,12.30
2015,05,30,07,12,12.40
2015,05,30,07,13,12.40
2015,05,30,07,14,12.50
2015,05,30,07,15,12.50
2015,05,30,07,16,12.50
2015,05,30,07,17,12.60
2015,05,30,07,18,12.60
2015,05,30,07,19,12.60
2015,05,30,07,20,12.70
2015,05,30,07,21,12.70
2015,05,30,07,22,12.80
2015,05,30,07,23,12.80
2015,05,30,07,24,12.80
2015,05,30,07,25,12.80
2015,05,30,07,26,12.80
2015,05,30,07,27,12.90
2015,05,30,07,28,12.90
2015,05,30,07,29,12.90
2015,05,30,07,30,13.00
2015,05,30,07,31,13.00
2015,05,30,07,32,13.10
2015,05,30,07,33,13.10
2015,05,30,07,34,13.10
2015,05,30,07,35,13.10
2015,05,30,07,36,13.10
2015,05,30,07,37,13.10
2015,05,30,07,38,13.10
2015,05,30,07,39,13.10
2015,05,30,07,40,13.10
2015,05,30,07,41,13.20
2015,05,30,07,42,13.20
2015,05,30,07,43,13.20
2015,05,30,07,44,13.20
2015,05,30,07,45,13.20
2015,05,30,07,46,13.20
2015,05,30,07,47,13.20
2015,05,30,07,48,13.20
2015,05,30,07,49,13.20
2015,05,30,07,50,13.20
2015,05,30,07,51,13.30
2015,05,30,07,52,13.30
2015,05,30,07,53,13.40
2015,05,30,07,54,13.40
2015,05,30,07,55,13.40
2015,05,30,07,56,13.50
2015,05,30,07,57,13.50
2015,05,30,07,58,13.50
2015,05,30,07,59,13.60
2015,05,30,08,00,13.60
2015,05,30,08,01,13.60
2015,05,30,08,02,13.70
2015,05,30,08,03,13.70
2015,05,30,08,04,13.80
2015,05,30,08,05,13.80
2015,05,30,08,06,13.90
2015,05,30,08,07,14.00
2015,05,30,08,08,14.00
2015,05,30,08,09,14.10
2015,05,30,08,10,14.10
2015,05,30,08,11,14.10
2015,05,30,08,12,14.10
2015,05,30,08,13,14.10
2015,05,30,08,14,14.10
2015,05,30,08,15,14.10
2015,05,30,08,16,14.20
2015,05,30,08,17,14.20
2015,05,30,08,18,14.30
2015,05,30,08,19,14.30
2015,05,30,08,20,14.30
2015,05,30,08,21,14.30
2015,05,30,08,22,14.30
2015,05,30,08,23,14.30
2015,05,30,08,24,14.30
2015,05,30,08,25,14.40
2015,05,30,08,26,14.60
2015,05,30,08,27,14.60
2015,05,30,08,28,14.60
2015,05,30,08,29,14.60
2015,05,30,08,30,14.60
2015,05,30,08,31,14.60
2015,05,30,08,32,14.60
2015,05,30,08,33,14.60
2015,05,30,08,34,14.70
2015,05,30,08,35,14.70
2015,05,30,08,36,14.70
2015,05,30,08,37,14.80
2015,05,30,08,38,14.80
2015,05,30,08,39,14.80
2015,05,30,08,40,14.90
2015,05,30,08,41,15.00
2015,05,30,08,42,15.00
2015,05,30,08,43,15.10
2015,05,30,08,44,15.10
2015,05,30,08,45,15.20
2015,05,30,08,46,15.20
2015,05,30,08,47,15.20
2015,05,30,08,48,15.30
2015,05,30,08,49,15.30
2015,05,30,08,50,15.40
2015,05,30,08,51,15.40
2015,05,30,08,52,15.40
2015,05,30,08,53,15.40
2015,05,30,08,54,15.50
2015,05,30,08,55,15.50
2015,05,30,08,56,15.50
2015,05,30,08,57,15.60
2015,05,30,08,58,15.60
2015,05,30,08,59,15.70
2015,05,30,09,00,15.70
2015,05,30,09,01,15.70
2015,05,30,09,02,15.70
2015,05,30,09,03,15.70
2015,05,30,09,04,15.80
2015,05,30,09,05,15.80
2015,05,30,09,06,15.90
2015,05,30,09,07,15.90
2015,05,30,09,08,15.90
2015,05,30,09,09,15.90
2015,05,30,09,10,15.90
2015,05,30,09,11,15.90
2015,05,30,09,12,16.00
2015,05,30,09,13,16.00
2015,05,30,09,14,16.00
2015,05,30,09,15,16.00
2015,05,30,09,16,16.10
2015,05,30,09,17,16.10
2015,05,30,09,18,16.10
2015,05,30,09,19,16.20
2015,05,30,09,20,16.30
2015,05,30,09,21,16.40
2015,05,30,09,22,16.50
2015,05,30,09,23,16.60
2015,05,30,09,24,16.70
2015,05,30,09,25,16.70
2015,05,30,09,26,16.80
2015,05,30,09,27,16.80
2015,05,30,09,28,16.90
2015,05,30,09,29,17.00
2015,05,30,09,30,17.00
2015,05,30,09,31,17.10
2015,05,30,09,32,17.20
2015,05,30,09,33,17.20
2015,05,30,09,34,17.20
2015,05,30,09,35,17.20
2015,05,30,09,36,17.30
2015,05,30,09,37,17.30
2015,05,30,09,38,17.40
2015,05,30,09,39,17.40
2015,05,30,09,40,17.40
2015,05,30,09,41,17.50
2015,05,30,09,42,17.60
2015,05,30,09,43,17.60
2015,05,30,09,44,17.70
2015,05,30,09,45,17.70
2015,05,30,09,46,17.80
2015,05,30,09,47,17.80
2015,05,30,09,48,17.80
2015,05,30,09,49,17.90
2015,05,30,09,50,18.00
2015,05,30,09,51,18.10
2015,05,30,09,52,18.30
2015,05,30,09,53,18.40
2015,05,30,09,54,18.50
2015,05,30,09,55,18.50
2015,05,30,09,56,18.60
2015,05,30,09,57,18.70
2015,05,30,09,58,18.70
2015,05,30,09,59,18.80
2015,05,30,10,00,18.80
2015,05,30,10,01,18.80
2015,05,30,10,02,18.90
2015,05,30,10,03,18.90
2015,05,30,10,04,18.90
2015,05,30,10,05,18.90
2015,05,30,10,06,18.90
2015,05,30,10,07,19.00
2015,05,30,10,08,19.00
2015,05,30,10,09,18.90
2015,05,30,10,10,18.90
2015,05,30,10,11,18.90
2015,05,30,10,12,18.90
2015,05,30,10,13,19.00
2015,05,30,10,14,19.10
2015,05,30,10,15,19.20
2015,05,30,10,16,19.40
2015,05,30,10,17,19.50
2015,05,30,10,18,19.60
2015,05,30,10,19,19.70
2015,05,30,10,20,19.80
2015,05,30,10,21,19.80
2015,05,30,10,22,19.90
2015,05,30,10,23,19.90
2015,05,30,10,24,19.90
2015,05,30,10,25,19.90
2015,05,30,10,26,19.90
2015,05,30,10,27,19.90
2015,05,30,10,28,20.00
2015,05,30,10,29,19.90
2015,05,30,10,30,19.90
2015,05,30,10,31,20.00
2015,05,30,10,32,20.00
2015,05,30,10,33,20.00
2015,05,30,10,34,20.10
2015,05,30,10,35,20.10
2015,05,30,10,36,20.10
2015,05,30,10,37,20.10
2015,05,30,10,38,20.20
2015,05,30,10,39,20.20
2015,05,30,10,40,20.20
2015,05,30,10,41,20.30
2015,05,30,10,42,20.40
2015,05,30,10,43,20.50
2015,05,30,10,44,20.60
2015,05,30,10,45,20.70
2015,05,30,10,46,20.80
2015,05,30,10,47,20.90
2015,05,30,10,48,21.00
2015,05,30,10,49,21.10
2015,05,30,10,50,21.20
2015,05,30,10,51,21.20
2015,05,30,10,52,21.20
2015,05,30,10,53,21.10
2015,05,30,10,54,21.10
2015,05,30,10,55,21.10
2015,05,30,10,56,21.10
2015,05,30,10,57,21.10
2015,05,30,10,58,21.20
2015,05,30,10,59,21.20
2015,05,30,11,00,21.20
2015,05,30,11,01,21.20
2015,05,30,11,02,21.00
2015,05,30,11,03,20.80
2015,05,30,11,04,20.60
2015,05,30,11,05,20.60
2015,05,30,11,06,20.60
2015,05,30,11,07,20.60
2015,05,30,11,08,20.60
2015,05,30,11,09,20.60
2015,05,30,11,10,20.70
2015,05,30,11,11,20.70
2015,05,30,11,12,20.70
2015,05,30,11,13,20.80
2015,05,30,11,14,20.80
2015,05,30,11,15,20.90
2015,05,30,11,16,20.80
2015,05,30,11,17,20.70
2015,05,30,11,18,20.50
2015,05,30,11,19,20.50
2015,05,30,11,20,20.40
2015,05,30,11,21,20.40
2015,05,30,11,22,20.40
2015,05,30,11,23,20.40
2015,05,30,11,24,20.30
2015,05,30,11,25,20.40
2015,05,30,11,26,20.40
2015,05,30,11,27,20.50
2015,05,30,11,28,20.50
2015,05,30,11,29,20.50
2015,05,30,11,30,20.40
2015,05,30,11,31,20.30
2015,05,30,11,32,20.30
2015,05,30,11,33,20.30
2015,05,30,11,34,20.30
2015,05,30,11,35,20.40
2015,05,30,11,36,20.50
2015,05,30,11,37,20.50
2015,05,30,11,38,20.50
2015,05,30,11,39,20.30
2015,05,30,11,40,20.20
2015,05,30,11,41,20.10
2015,05,30,11,42,20.10
2015,05,30,11,43,20.10
2015,05,30,11,44,20.00
2015,05,30,11,45,20.00
2015,05,30,11,46,20.10
2015,05,30,11,47,20.10
2015,05,30,11,48,20.00
2015,05,30,11,49,20.00
2015,05,30,11,50,19.90
2015,05,30,11,51,19.80
2015,05,30,11,52,19.70
2015,05,30,11,53,19.60
2015,05,30,11,54,19.50
2015,05,30,11,55,19.40
2015,05,30,11,56,19.30
2015,05,30,11,57,19.30
2015,05,30,11,58,19.20
2015,05,30,11,59,19.20
2015,05,30,12,00,19.20
2015,05,30,12,01,19.20
2015,05,30,12,02,19.20
2015,05,30,12,03,19.10
2015,05,30,12,04,19.10
2015,05,30,12,05,19.10
2015,05,30,12,06,19.10
2015,05,30,12,07,19.20
2015,05,30,12,08,19.20
2015,05,30,12,09,19.30
2015,05,30,12,10,19.30
2015,05,30,12,11,19.40
2015,05,30,12,12,19.50
2015,05,30,12,13,19.70
2015,05,30,12,14,19.80
2015,05,30,12,15,19.90
2015,05,30,12,16,19.90
2015,05,30,12,17,20.00
2015,05,30,12,18,20.10
2015,05,30,12,19,20.10
2015,05,30,12,20,20.00
2015,05,30,12,21,20.00
2015,05,30,12,22,20.00
2015,05,30,12,23,20.10
2015,05,30,12,24,20.10
2015,05,30,12,25,20.20
2015,05,30,12,26,20.30
2015,05,30,12,27,20.40
2015,05,30,12,28,20.40
2015,05,30,12,29,20.40
2015,05,30,12,30,20.20
2015,05,30,12,31,20.20
2015,05,30,12,32,20.20
2015,05,30,12,33,20.20
2015,05,30,12,34,20.20
2015,05,30,12,35,20.20
2015,05,30,12,36,20.20
2015,05,30,12,37,20.10
2015,05,30,12,38,20.10
2015,05,30,12,39,20.10
2015,05,30,12,40,20.10
2015,05,30,12,41,20.00
2015,05,30,12,42,20.00
2015,05,30,12,43,20.00
2015,05,30,12,44,19.90
2015,05,30,12,45,19.90
2015,05,30,12,46,19.80
2015,05,30,12,47,19.70
2015,05,30,12,48,19.70
2015,05,30,12,49,19.80
2015,05,30,12,50,19.90
2015,05,30,12,51,20.00
2015,05,30,12,52,20.20
2015,05,30,12,53,20.30
2015,05,30,12,54,20.50
2015,05,30,12,55,20.60
2015,05,30,12,56,20.60
2015,05,30,12,57,20.60
2015,05,30,12,58,20.50
2015,05,30,12,59,20.40
2015,05,30,13,00,20.30
2015,05,30,13,01,20.30
2015,05,30,13,02,20.20
2015,05,30,13,03,20.10
2015,05,30,13,04,19.90
2015,05,30,13,05,19.80
2015,05,30,13,06,19.70
2015,05,30,13,07,19.60
2015,05,30,13,08,19.60
2015,05,30,13,09,19.50
2015,05,30,13,10,19.50
2015,05,30,13,11,19.60
2015,05,30,13,12,19.60
2015,05,30,13,13,19.70
2015,05,30,13,14,19.70
2015,05,30,13,15,19.80
2015,05,30,13,16,20.00
2015,05,30,13,17,20.10
2015,05,30,13,18,20.10
2015,05,30,13,19,20.10
2015,05,30,13,20,20.10
2015,05,30,13,21,20.20
2015,05,30,13,22,20.10
2015,05,30,13,23,19.90
2015,05,30,13,24,19.60
2015,05,30,13,25,19.40
2015,05,30,13,26,19.20
2015,05,30,13,27,19.10
2015,05,30,13,28,19.00
2015,05,30,13,29,19.00
2015,05,30,13,30,19.10
2015,05,30,13,31,19.20
2015,05,30,13,32,19.40
2015,05,30,13,33,19.60
2015,05,30,13,34,19.60
2015,05,30,13,35,19.60
2015,05,30,13,36,19.50
2015,05,30,13,37,19.40
2015,05,30,13,38,19.30
2015,05,30,13,39,19.10
2015,05,30,13,40,19.10
2015,05,30,13,41,19.00
2015,05,30,13,42,19.00
2015,05,30,13,43,19.00
2015,05,30,13,44,19.10
2015,05,30,13,45,19.20
2015,05,30,13,46,19.20
2015,05,30,13,47,19.20
2015,05,30,13,48,19.10
2015,05,30,13,49,19.10
2015,05,30,13,50,19.10
2015,05,30,13,51,19.10
2015,05,30,13,52,19.10
2015,05,30,13,53,19.20
2015,05,30,13,54,19.30
2015,05,30,13,55,19.30
2015,05,30,13,56,19.30
2015,05,30,13,57,19.20
2015,05,30,13,58,19.20
2015,05,30,13,59,19.10
2015,05,30,14,00,19.10
2015,05,30,14,01,19.10
2015,05,30,14,02,19.00
2015,05,30,14,03,19.00
2015,05,30,14,04,19.00
2015,05,30,14,05,19.00
2015,05,30,14,06,18.90
2015,05,30,14,07,18.80
2015,05,30,14,08,18.90
2015,05,30,14,09,19.10
2015,05,30,14,10,19.20
2015,05,30,14,11,19.30
2015,05,30,14,12,19.20
2015,05,30,14,13,19.20
2015,05,30,14,14,19.20
2015,05,30,14,15,19.20
2015,05,30,14,16,19.20
2015,05,30,14,17,19.30
2015,05,30,14,18,19.50
2015,05,30,14,19,19.60
2015,05,30,14,20,19.70
2015,05,30,14,21,19.80
2015,05,30,14,22,19.90
2015,05,30,14,23,19.80
2015,05,30,14,24,19.80
2015,05,30,14,25,19.90
2015,05,30,14,26,19.90
2015,05,30,14,27,19.90
2015,05,30,14,28,19.90
2015,05,30,14,29,20.00
2015,05,30,14,30,20.10
2015,05,30,14,31,20.10
2015,05,30,14,32,20.10
2015,05,30,14,33,20.20
2015,05,30,14,34,20.20
2015,05,30,14,35,20.10
2015,05,30,14,36,19.90
2015,05,30,14,37,19.80
2015,05,30,14,38,19.60
2015,05,30,14,39,19.50
2015,05,30,14,40,19.40
2015,05,30,14,41,19.50
2015,05,30,14,42,19.60
2015,05,30,14,43,19.60
2015,05,30,14,44,19.70
2015,05,30,14,45,19.70
2015,05,30,14,46,19.70
2015,05,30,14,47,19.80
2015,05,30,14,48,19.90
2015,05,30,14,49,20.00
2015,05,30,14,50,20.10
2015,05,30,14,51,20.20
2015,05,30,14,52,20.30
2015,05,30,14,53,20.30
2015,05,30,14,54,20.40
2015,05,30,14,55,20.40
2015,05,30,14,56,20.50
2015,05,30,14,57,20.60
2015,05,30,14,58,20.70
2015,05,30,14,59,20.70
2015,05,30,15,00,20.70
2015,05,30,15,01,20.70
2015,05,30,15,02,20.70
2015,05,30,15,03,20.70
2015,05,30,15,04,20.70
2015,05,30,15,05,20.80
2015,05,30,15,06,20.80
2015,05,30,15,07,20.90
2015,05,30,15,08,20.90
2015,05,30,15,09,20.90
2015,05,30,15,10,20.90
2015,05,30,15,11,20.80
2015,05,30,15,12,20.80
2015,05,30,15,13,20.80
2015,05,30,15,14,20.70
2015,05,30,15,15,20.70
2015,05,30,15,16,20.70
2015,05,30,15,17,20.70
2015,05,30,15,18,20.80
2015,05,30,15,19,20.90
2015,05,30,15,20,21.00
2015,05,30,15,21,21.10
2015,05,30,15,22,21.20
2015,05,30,15,23,21.30
2015,05,30,15,24,21.30
2015,05,30,15,25,21.30
2015,05,30,15,26,21.30
2015,05,30,15,27,21.30
2015,05,30,15,28,21.30
2015,05,30,15,29,21.30
2015,05,30,15,30,21.30
2015,05,30,15,31,21.30
2015,05,30,15,32,21.30
2015,05,30,15,33,21.40
2015,05,30,15,34,21.60
2015,05,30,15,35,21.70
2015,05,30,15,36,21.70
2015,05,30,15,37,21.70
2015,05,30,15,38,21.60
2015,05,30,15,39,21.60
2015,05,30,15,40,21.50
2015,05,30,15,41,21.40
2015,05,30,15,42,21.20
2015,05,30,15,43,21.20
2015,05,30,15,44,21.00
2015,05,30,15,45,21.00
2015,05,30,15,46,21.00
2015,05,30,15,47,21.10
2015,05,30,15,48,21.20
2015,05,30,15,49,21.30
2015,05,30,15,50,21.30
2015,05,30,15,51,21.30
2015,05,30,15,52,21.20
2015,05,30,15,53,21.20
2015,05,30,15,54,21.30
2015,05,30,15,55,21.30
2015,05,30,15,56,21.20
2015,05,30,15,57,21.20
2015,05,30,15,58,21.30
2015,05,30,15,59,21.30
2015,05,30,16,00,21.30
2015,05,30,16,01,21.20
2015,05,30,16,02,21.20
2015,05,30,16,03,21.20
2015,05,30,16,04,21.10
2015,05,30,16,05,21.10
2015,05,30,16,06,21.10
2015,05,30,16,07,21.10
2015,05,30,16,08,21.20
2015,05,30,16,09,21.20
2015,05,30,16,10,21.20
2015,05,30,16,11,21.20
2015,05,30,16,12,21.20
2015,05,30,16,13,21.30
2015,05,30,16,14,21.30
2015,05,30,16,15,21.30
2015,05,30,16,16,21.20
2015,05,30,16,17,21.20
2015,05,30,16,18,21.20
2015,05,30,16,19,21.20
2015,05,30,16,20,21.20
2015,05,30,16,21,21.20
2015,05,30,16,22,21.20
2015,05,30,16,23,21.20
2015,05,30,16,24,21.20
2015,05,30,16,25,21.20
2015,05,30,16,26,21.20
2015,05,30,16,27,21.20
2015,05,30,16,28,21.20
2015,05,30,16,29,21.20
2015,05,30,16,30,21.10
2015,05,30,16,31,21.10
2015,05,30,16,32,21.10
2015,05,30,16,33,21.20
2015,05,30,16,34,21.20
2015,05,30,16,35,21.30
2015,05,30,16,36,21.40
2015,05,30,16,37,21.40
2015,05,30,16,38,21.50
2015,05,30,16,39,21.40
2015,05,30,16,40,21.40
2015,05,30,16,41,21.40
2015,05,30,16,42,21.30
2015,05,30,16,43,21.20
2015,05,30,16,44,21.20
2015,05,30,16,45,21.20
2015,05,30,16,46,21.20
2015,05,30,16,47,21.20
2015,05,30,16,48,21.20
2015,05,30,16,49,21.20
2015,05,30,16,50,21.20
2015,05,30,16,51,21.20
2015,05,30,16,52,21.20
2015,05,30,16,53,21.20
2015,05,30,16,54,21.20
2015,05,30,16,55,21.20
2015,05,30,16,56,21.20
2015,05,30,16,57,21.20
2015,05,30,16,58,21.30
2015,05,30,16,59,21.30
2015,05,30,17,00,21.30
2015,05,30,17,01,21.30
2015,05,30,17,02,21.30
2015,05,30,17,03,21.30
2015,05,30,17,04,21.30
2015,05,30,17,05,21.20
2015,05,30,17,06,21.10
2015,05,30,17,07,21.10
2015,05,30,17,08,21.10
2015,05,30,17,09,21.10
2015,05,30,17,10,21.10
2015,05,30,17,11,21.20
2015,05,30,17,12,21.20
2015,05,30,17,13,21.20
2015,05,30,17,14,21.30
2015,05,30,17,15,21.40
2015,05,30,17,16,21.50
2015,05,30,17,17,21.50
2015,05,30,17,18,21.40
2015,05,30,17,19,21.50